Regional Weather Roundup
Issued by NWS

Home | Current Version | Previous Version | Graphics & Text | Print | Product List | Glossary Off
Versions: 1 2 3 4 5 6 7 8 9 10 11 12 13 14 15 16 17 18 19 20 21 22 23 24 25 26 27 28 29 30 31 32 33 34 35 36 37 38 39 40 41 42 43 44 45 46 47 48 49 50

000
ASUS43 KFSD 300810
RWRSD

WEATHER ROUNDUP FOR SOUTH DAKOTA
NATIONAL WEATHER SERVICE SIOUX FALLS SD
300 AM CDT WED JUL 30 2014

NOTE: "FAIR" INDICATES FEW OR NO CLOUDS BELOW 12,000 FEET WITH NO
SIGNIFICANT WEATHER AND/OR OBSTRUCTIONS TO VISIBILITY.


SDZ001>005-009-010-012>017-300900-
NORTHWEST AND NORTH CENTRAL SOUTH DAKOTA

CITY           SKY/WX    TMP DP  RH WIND       PRES   REMARKS
BUFFALO          N/A     61  51  70 NW7       30.11F
MOBRIDGE       MOCLDY    60  55  83 SE7       30.14S
$$

SDZ012>016-024>037-041>051-057-063-072>074-300900-
SOUTHWEST AND SOUTH CENTRAL SOUTH DAKOTA

CITY           SKY/WX    TMP DP  RH WIND       PRES   REMARKS
RAPID CTY ARPT PTCLDY    54  49  83 CALM      30.20F
PIERRE         CLOUDY    63  57  81 CALM      30.14S
CUSTER         CLEAR     53  49  86 W3        30.32F
ELLSWORTH AFB  PTCLDY    58  52  80 SW6       30.20S
PHILIP         CLEAR     56  49  77 CALM      30.17S
PINE RIDGE     PTCLDY    49  48  97 CALM      30.23F
WINNER         FAIR      64  49  57 SW5       30.16F
$$

SDZ004>011-016>023-039-040-300900-
NORTHEAST SOUTH DAKOTA

CITY           SKY/WX    TMP DP  RH WIND       PRES   REMARKS
ABERDEEN       CLEAR     52  51  97 N3        30.15R
WATERTOWN      CLEAR     55  52  89 CALM      30.15S
SISSETON         N/A     52  51  97 CALM      30.12S
$$

SDZ017-020-022-023-036>040-048>070-300900-
SOUTHEAST SOUTH DAKOTA

CITY           SKY/WX    TMP DP  RH WIND       PRES   REMARKS
SIOUX FALLS    CLEAR     55  52  89 CALM      30.15S
HURON          CLEAR     52  50  93 CALM      30.14F
CHAMBERLAIN    CLEAR     55  51  87 CALM      30.15F
MITCHELL       CLEAR     58  53  84 W5        30.15S
YANKTON        PTCLDY    55  54  94 NW3       30.14S
$$

ABBREVIATIONS USED IN REMARKS
   TC - TEMPERATURE IN CELSIUS
  WCI - WIND CHILL INDEX
   HX - HEAT INDEX
  VSB - VISIBILITY




USA.gov is the U.S. government's official web portal to all federal, state and local government web resources and services.